Flag for U.S.A. Weather past 2 weeks in Lakewood, Colorado, U.S.A.

Now
71 °F

Broken clouds.


Feels Like: 77 °F
Forecast: 55 / 75 °F
Wind: 7 mph from Southeast

Location: Centennial Airport

Current Time: Aug 1, 2014 at 10:45:24 AM

Latest Report: Aug 1, 2014 at 9:53 AM


Visibility: 10 mi

Pressure: 30.13 "Hg

Humidity: 39%

Dew point: 45 °F

Location of LakewoodLocation

Historic Weather in Lakewood — Graph

°F

Lakewood temperature yesterday

Maximum temperature yesterday: 72 °F (at 4:53 PM)
Minimum temperature yesterday: 56 °F (at 3:53 AM)
Average temperature yesterday: 63 °F

Past Weeks' High & Low Weather Summary

 TemperatureHumidityPressure
High92 °F (Jul 21, 2:53 PM)96% (Jul 30, 12:53 AM)30.34 "Hg (Jul 30, 12:53 AM)
Low55 °F (Aug 1, 5:53 AM)12% (Jul 19, 1:53 PM)29.78 "Hg (Jul 20, 12:53 AM)
Average71 °F51%30.02 "Hg
* Reported Jul 17 8:53 AM — Aug 1 8:53 AM, Lakewood, Weather by CustomWeather, © 2014

Note: Actual official high and low records may vary slightly from our data, if they occured in-between our weather recording intervals... More about our weather records

Advertising

Lakewood weather history for previous 24 hours

 ConditionsComfort  
Time TempWeatherWind HumidityBarometerVisibility
8:53 AM
Aug 1
67 °FBroken clouds.No wind57%30.14 "Hg10 mi
7:53 AM63 °FMostly cloudy.6 mph75%30.14 "Hg10 mi
6:53 AM58 °FPartly cloudy.No wind78%30.14 "Hg10 mi
5:53 AM55 °FPassing clouds.3 mph90%30.14 "Hg10 mi
4:53 AM56 °FPassing clouds.5 mph90%30.13 "Hg10 mi
3:53 AM57 °FPassing clouds.6 mph83%30.13 "Hg10 mi
2:53 AM56 °FClear.6 mph90%30.14 "Hg10 mi
1:53 AM57 °FClear.5 mph87%30.16 "Hg10 mi
12:53 AM59 °FPassing clouds.3 mph84%30.16 "Hg10 mi
11:53 PM
Jul 31
60 °FPassing clouds.3 mph80%30.17 "Hg10 mi
10:53 PM61 °FPassing clouds.6 mph72%30.16 "Hg10 mi
9:53 PM63 °FPassing clouds.No wind68%30.17 "Hg10 mi
8:53 PM68 °FScattered clouds.3 mph49%30.13 "Hg10 mi
7:53 PM69 °FScattered clouds.No wind51%30.13 "Hg10 mi
6:53 PM71 °FScattered clouds.6 mph45%30.11 "Hg10 mi
5:53 PM71 °FPartly sunny.5 mph47%30.12 "Hg10 mi
4:53 PM72 °FBroken clouds.6 mph46%30.12 "Hg10 mi
3:53 PM71 °FBroken clouds.3 mph45%30.14 "Hg10 mi
2:53 PM69 °FBroken clouds.5 mph51%30.16 "Hg10 mi
1:53 PM67 °FBroken clouds.No wind55%30.18 "Hg10 mi
12:53 PM66 °FBroken clouds.5 mph65%30.19 "Hg10 mi
11:53 AM62 °FBroken clouds.7 mph80%30.21 "Hg10 mi
10:53 AM62 °FBroken clouds.5 mph73%30.21 "Hg10 mi
Weather by CustomWeather, © 2014

See weather overviewHow to use our weather pages